Location: Diguira
(13.1838°N, 4.9109°W)
Time: 17:31:07
(UTC+00:00)

SL-16 R/B - Pass Details

Date: 18 September 2020
Orbit: 842 x 848 km, 71.0° (Epoch: 24 October)

Event Time Altitude Azimuth Distance (km) Brightness Sun altitude
Rises 19:28:06 0° 331° (NNW) 3,392 5.9 -17.8°
Reaches altitude 10° 19:30:41 10° 323° (NW) 2,456 5.2 -18.4°
Maximum altitude 19:35:52 39° 256° (WSW) 1,246 3.6 -19.7°
Drops below altitude 10° 19:41:03 10° 189° (S) 2,452 4.6 -20.9°
Sets 19:43:39 0° 181° (S) 3,386 5.3 -21.5°
